RYR882R LIPZ-LICR

Flight info

Callsign RYR882R
Flight time 1h 10m
Altitude 35000
Route CHI DCT ARDAM DCT BELOV DCT AMLON DCT SOR Q58 FOSQA
Aircraft B738/M-SDE2E3FGHIRWXY/LB1

Departure

Time 2026-04-25 19:34
Airport Venice Marco Polo Airport (LIPZ)

Arrival

Time 2026-04-25 20:45
Airport Reggio Calabria Airport (LICR)
Time Latitude Longitude Altitude Speed Heading
2026-04-25 19:17 45.50809 12.33916 15 ft 0 kts 222°
2026-04-25 19:26 45.50811 12.33919 15 ft 3 kts 221°
2026-04-25 19:26 45.50826 12.33937 15 ft 3 kts 221°
2026-04-25 19:26 45.50838 12.33952 18 ft 1 kts 208°
2026-04-25 19:26 45.50846 12.33955 18 ft 1 kts 153°
2026-04-25 19:27 45.50854 12.33949 15 ft 1 kts 138°
2026-04-25 19:27 45.50856 12.33946 15 ft 1 kts 136°
2026-04-25 19:27 45.50866 12.33932 17 ft 1 kts 134°
2026-04-25 19:27 45.50866 12.33931 17 ft 0 kts 134°
2026-04-25 19:31 45.50814 12.34011 15 ft 17 kts 132°
2026-04-25 19:31 45.50752 12.34161 15 ft 18 kts 127°
2026-04-25 19:32 45.50672 12.34288 15 ft 17 kts 132°
2026-04-25 19:32 45.50569 12.34337 15 ft 16 kts 178°
2026-04-25 19:32 45.50457 12.34344 17 ft 16 kts 178°
2026-04-25 19:32 45.50420 12.34345 15 ft 15 kts 176°
2026-04-25 19:33 45.50215 12.34361 15 ft 24 kts 179°
2026-04-25 19:33 45.50098 12.34303 14 ft 0 kts 225°
2026-04-25 19:33 45.50063 12.34303 14 ft 9 kts 143°
2026-04-25 19:33 45.50051 12.34413 14 ft 19 kts 88°
2026-04-25 19:34 45.50086 12.34639 15 ft 36 kts 47°
2026-04-25 19:34 45.50464 12.35127 12 ft 114 kts 42°
2026-04-25 19:34 45.51235 12.36117 48 ft 180 kts 42°
2026-04-25 19:34 45.52165 12.37289 1112 ft 166 kts 41°
2026-04-25 19:35 45.53042 12.38342 2091 ft 175 kts 45°
2026-04-25 19:35 45.53697 12.39995 2419 ft 205 kts 82°
2026-04-25 19:35 45.53561 12.42036 3100 ft 208 kts 100°
2026-04-25 19:35 45.53273 12.44102 3691 ft 217 kts 102°
2026-04-25 19:36 45.53059 12.45530 3927 ft 228 kts 103°
2026-04-25 19:36 45.52669 12.47772 4443 ft 236 kts 106°
2026-04-25 19:36 45.52117 12.50030 4987 ft 249 kts 118°
2026-04-25 19:36 45.51001 12.51974 5499 ft 263 kts 144°
2026-04-25 19:37 45.49351 12.53113 6244 ft 265 kts 167°
2026-04-25 19:37 45.47526 12.53471 7004 ft 268 kts 184°
2026-04-25 19:37 45.45630 12.53065 7506 ft 282 kts 192°
2026-04-25 19:37 45.43679 12.52525 8214 ft 289 kts 191°
2026-04-25 19:38 45.41689 12.52003 8990 ft 293 kts 190°
2026-04-25 19:38 45.39668 12.51503 9781 ft 297 kts 189°
2026-04-25 19:38 45.37613 12.51010 10427 ft 305 kts 189°
2026-04-25 19:38 45.35433 12.50492 10611 ft 330 kts 190°
2026-04-25 19:39 45.33110 12.49814 10800 ft 352 kts 200°
2026-04-25 19:39 45.30889 12.48164 11058 ft 368 kts 214°
2026-04-25 19:39 45.28735 12.46211 11667 ft 373 kts 213°
2026-04-25 19:39 45.26510 12.44288 12468 ft 373 kts 212°
2026-04-25 19:40 45.24273 12.42401 13240 ft 375 kts 212°
2026-04-25 19:40 45.22014 12.40512 13921 ft 378 kts 212°
2026-04-25 19:40 45.19731 12.38610 14538 ft 381 kts 212°
2026-04-25 19:40 45.17437 12.36701 15222 ft 382 kts 212°
2026-04-25 19:41 45.15134 12.34782 15892 ft 384 kts 212°
2026-04-25 19:41 45.12816 12.32853 16537 ft 386 kts 212°
2026-04-25 19:41 45.10476 12.30960 17154 ft 390 kts 207°
2026-04-25 19:41 45.08765 12.30107 17522 ft 396 kts 193°
2026-04-25 19:42 45.05099 12.30243 18375 ft 404 kts 169°
2026-04-25 19:42 45.02475 12.31744 18875 ft 413 kts 152°
2026-04-25 19:42 44.99999 12.33869 19344 ft 418 kts 152°
2026-04-25 19:42 44.97484 12.36000 19778 ft 422 kts 152°
2026-04-25 19:43 44.94951 12.38123 20246 ft 426 kts 153°
2026-04-25 19:43 44.92389 12.40251 20722 ft 429 kts 153°
2026-04-25 19:43 44.89797 12.42389 21166 ft 433 kts 153°
2026-04-25 19:43 44.87189 12.44534 21598 ft 436 kts 153°
2026-04-25 19:44 44.84555 12.46697 22033 ft 440 kts 154°
2026-04-25 19:44 44.81900 12.48875 22460 ft 443 kts 154°
2026-04-25 19:44 44.79225 12.51067 22869 ft 447 kts 154°
2026-04-25 19:44 44.76525 12.53270 23273 ft 450 kts 154°
2026-04-25 19:45 44.73802 12.55484 23663 ft 453 kts 154°
2026-04-25 19:45 44.71063 12.57710 23991 ft 456 kts 154°
2026-04-25 19:45 44.68301 12.59953 24328 ft 459 kts 154°
2026-04-25 19:45 44.65528 12.62204 24663 ft 462 kts 154°
2026-04-25 19:46 44.62733 12.64471 24991 ft 464 kts 154°
2026-04-25 19:46 44.59928 12.66745 25321 ft 467 kts 154°
2026-04-25 19:46 44.57107 12.69029 25634 ft 469 kts 154°
2026-04-25 19:46 44.54268 12.71322 25929 ft 472 kts 154°
2026-04-25 19:47 44.51412 12.73619 26234 ft 475 kts 154°
2026-04-25 19:47 44.48536 12.75919 26530 ft 477 kts 154°
2026-04-25 19:47 44.45644 12.78229 26819 ft 479 kts 154°
2026-04-25 19:47 44.42741 12.80547 27110 ft 482 kts 153°
2026-04-25 19:48 44.39826 12.82875 27392 ft 484 kts 153°
2026-04-25 19:48 44.36893 12.85214 27672 ft 486 kts 153°
2026-04-25 19:48 44.33958 12.87441 27937 ft 486 kts 158°
2026-04-25 19:48 44.30809 12.89102 28179 ft 484 kts 167°
2026-04-25 19:49 44.27564 12.90367 28511 ft 484 kts 168°
2026-04-25 19:49 44.25376 12.91218 28765 ft 484 kts 167°
2026-04-25 19:49 44.21092 12.92912 29289 ft 482 kts 167°
2026-04-25 19:49 44.17872 12.94209 29682 ft 482 kts 167°
2026-04-25 19:50 44.11439 12.96837 30388 ft 481 kts 166°
2026-04-25 19:50 44.08232 12.98155 30750 ft 479 kts 166°
2026-04-25 19:50 44.05043 12.99465 31117 ft 477 kts 166°
2026-04-25 19:51 44.01860 13.00770 31436 ft 476 kts 166°
2026-04-25 19:51 43.98687 13.02070 31764 ft 475 kts 166°
2026-04-25 19:51 43.95515 13.03366 32113 ft 474 kts 166°
2026-04-25 19:51 43.92360 13.04654 32447 ft 472 kts 166°
2026-04-25 19:52 43.89210 13.05938 32761 ft 471 kts 166°
2026-04-25 19:52 43.86067 13.07217 33061 ft 470 kts 166°
2026-04-25 19:52 43.82928 13.08493 33380 ft 469 kts 166°
2026-04-25 19:52 43.79794 13.09765 33687 ft 469 kts 166°
2026-04-25 19:53 43.76666 13.11034 33982 ft 468 kts 166°
2026-04-25 19:53 43.73548 13.12298 34249 ft 467 kts 166°
2026-04-25 19:53 43.70440 13.13556 34517 ft 465 kts 166°
2026-04-25 19:53 43.67332 13.14813 34788 ft 464 kts 166°
2026-04-25 19:54 43.64236 13.16064 35033 ft 463 kts 166°
2026-04-25 19:54 43.58005 13.18574 35060 ft 468 kts 166°
2026-04-25 19:55 43.51766 13.21085 35038 ft 463 kts 166°
2026-04-25 19:55 43.45608 13.23560 35060 ft 459 kts 166°
2026-04-25 19:56 43.39476 13.26017 35060 ft 458 kts 166°
2026-04-25 19:56 43.33393 13.28448 35056 ft 457 kts 166°
2026-04-25 19:57 43.27287 13.30885 35065 ft 457 kts 166°
2026-04-25 19:57 43.21169 13.33320 35064 ft 458 kts 166°
2026-04-25 19:58 43.15051 13.35751 35084 ft 458 kts 166°
2026-04-25 19:58 43.08912 13.38185 35078 ft 459 kts 166°
2026-04-25 19:59 43.02766 13.40617 35073 ft 460 kts 166°
2026-04-25 19:59 42.96617 13.43045 35086 ft 460 kts 165°
2026-04-25 20:00 42.90458 13.45472 35078 ft 461 kts 165°
2026-04-25 20:00 42.84299 13.47894 35083 ft 461 kts 165°
2026-04-25 20:01 42.75058 13.51519 35088 ft 460 kts 165°
2026-04-25 20:01 42.68920 13.53920 35088 ft 460 kts 165°
2026-04-25 20:02 42.62765 13.56323 35090 ft 458 kts 165°
2026-04-25 20:02 42.56635 13.58711 35094 ft 457 kts 165°
2026-04-25 20:03 42.50522 13.61088 35093 ft 456 kts 165°
2026-04-25 20:03 42.44414 13.63458 35102 ft 455 kts 165°
2026-04-25 20:04 42.38324 13.65816 35091 ft 455 kts 165°
2026-04-25 20:04 42.32238 13.68168 35104 ft 454 kts 165°
2026-04-25 20:05 42.26202 13.70496 35102 ft 454 kts 165°
2026-04-25 20:05 42.20119 13.72836 35098 ft 453 kts 165°
2026-04-25 20:06 42.13965 13.74653 35038 ft 453 kts 175°
2026-04-25 20:06 42.10808 13.74855 34877 ft 456 kts 184°
2026-04-25 20:06 42.07657 13.74327 34615 ft 459 kts 194°
2026-04-25 20:07 42.04654 13.72919 34184 ft 456 kts 207°
2026-04-25 20:07 42.02006 13.70590 33286 ft 456 kts 223°
2026-04-25 20:07 41.99950 13.67392 32063 ft 463 kts 238°
2026-04-25 20:07 41.98130 13.63790 31864 ft 450 kts 229°
2026-04-25 20:08 41.95869 13.61082 31896 ft 438 kts 213°
2026-04-25 20:08 41.93128 13.59303 31973 ft 442 kts 198°
2026-04-25 20:08 41.90087 13.58482 32029 ft 450 kts 185°
2026-04-25 20:08 41.86935 13.58620 32009 ft 459 kts 169°
2026-04-25 20:09 41.83864 13.59871 32136 ft 464 kts 160°
2026-04-25 20:09 41.80832 13.61416 32099 ft 467 kts 160°
2026-04-25 20:09 41.74738 13.64554 32109 ft 463 kts 160°
2026-04-25 20:10 41.68780 13.67571 32113 ft 460 kts 160°
2026-04-25 20:10 41.62785 13.70558 32115 ft 460 kts 160°
2026-04-25 20:11 41.56781 13.73528 32121 ft 460 kts 160°
2026-04-25 20:11 41.50777 13.76491 32115 ft 460 kts 160°
2026-04-25 20:12 41.44761 13.79455 32109 ft 460 kts 160°
2026-04-25 20:12 41.40739 13.81434 32115 ft 460 kts 160°
2026-04-25 20:13 41.32735 13.85366 32110 ft 460 kts 160°
2026-04-25 20:13 41.26726 13.88311 32110 ft 460 kts 160°
2026-04-25 20:14 41.21692 13.90773 32104 ft 460 kts 160°
2026-04-25 20:14 41.15682 13.93708 32104 ft 460 kts 160°
2026-04-25 20:15 41.08701 13.97110 32105 ft 460 kts 160°
2026-04-25 20:15 41.03668 13.99558 32103 ft 459 kts 160°
2026-04-25 20:16 40.97686 14.02462 32105 ft 459 kts 160°
2026-04-25 20:16 40.91691 14.05367 32106 ft 459 kts 160°
2026-04-25 20:17 40.85698 14.08265 32103 ft 458 kts 160°
2026-04-25 20:17 40.79702 14.11159 32106 ft 458 kts 160°
2026-04-25 20:18 40.73719 14.14041 32107 ft 458 kts 160°
2026-04-25 20:18 40.67731 14.16921 32108 ft 458 kts 160°
2026-04-25 20:19 40.61747 14.19792 32110 ft 458 kts 160°
2026-04-25 20:19 40.55767 14.22656 32118 ft 457 kts 160°
2026-04-25 20:20 40.49823 14.25499 32119 ft 457 kts 160°
2026-04-25 20:20 40.43831 14.28358 32115 ft 457 kts 160°
2026-04-25 20:21 40.37847 14.31207 32115 ft 457 kts 160°
2026-04-25 20:21 40.31901 14.34034 32120 ft 457 kts 160°
2026-04-25 20:22 40.26884 14.36414 32116 ft 457 kts 160°
2026-04-25 20:22 40.19941 14.39703 32120 ft 457 kts 160°
2026-04-25 20:23 40.13964 14.42528 32127 ft 457 kts 160°
2026-04-25 20:23 40.07988 14.45348 32125 ft 457 kts 160°
2026-04-25 20:24 40.02007 14.48165 32128 ft 457 kts 160°
2026-04-25 20:24 39.96016 14.50981 32134 ft 457 kts 160°
2026-04-25 20:25 39.90014 14.53797 32137 ft 457 kts 160°
2026-04-25 20:25 39.84032 14.56598 32147 ft 464 kts 160°
2026-04-25 20:26 39.77898 14.59465 32141 ft 470 kts 160°
2026-04-25 20:26 39.71738 14.62339 32133 ft 471 kts 160°
2026-04-25 20:27 39.65564 14.65214 32136 ft 471 kts 160°
2026-04-25 20:27 39.59385 14.68086 32135 ft 471 kts 160°
2026-04-25 20:28 39.53212 14.70949 32142 ft 471 kts 160°
2026-04-25 20:28 39.47039 14.73807 32141 ft 470 kts 160°
2026-04-25 20:29 39.40911 14.76639 32136 ft 470 kts 160°
2026-04-25 20:29 39.34750 14.79481 32151 ft 470 kts 160°
2026-04-25 20:30 39.28586 14.82319 32138 ft 470 kts 160°
2026-04-25 20:30 39.22416 14.85155 32138 ft 470 kts 160°
2026-04-25 20:31 39.16240 14.87988 32137 ft 470 kts 160°
2026-04-25 20:31 39.10109 14.90795 32144 ft 470 kts 160°
2026-04-25 20:32 39.03933 14.93617 32140 ft 470 kts 160°
2026-04-25 20:32 38.97758 14.96434 32141 ft 470 kts 160°
2026-04-25 20:33 38.94690 14.97832 32095 ft 459 kts 160°
2026-04-25 20:33 38.91718 14.99184 31455 ft 447 kts 160°
2026-04-25 20:33 38.88783 15.00519 30391 ft 448 kts 160°
2026-04-25 20:33 38.86824 15.01409 29461 ft 452 kts 160°
2026-04-25 20:34 38.82890 15.03196 27914 ft 451 kts 160°
2026-04-25 20:34 38.79950 15.04530 26980 ft 445 kts 160°
2026-04-25 20:34 38.77053 15.05843 26148 ft 438 kts 160°
2026-04-25 20:34 38.74190 15.07139 25297 ft 433 kts 160°
2026-04-25 20:35 38.71396 15.08522 24435 ft 428 kts 154°
2026-04-25 20:35 38.68835 15.10403 23585 ft 423 kts 144°
2026-04-25 20:35 38.66570 15.12772 22665 ft 417 kts 138°
2026-04-25 20:35 38.64397 15.15196 21807 ft 411 kts 139°
2026-04-25 20:36 38.62233 15.17559 20956 ft 406 kts 139°
2026-04-25 20:36 38.60082 15.19878 20119 ft 402 kts 139°
2026-04-25 20:36 38.57952 15.22161 19313 ft 397 kts 139°
2026-04-25 20:36 38.55844 15.24417 18535 ft 393 kts 139°
2026-04-25 20:37 38.53752 15.26654 17673 ft 389 kts 139°
2026-04-25 20:37 38.51692 15.28857 16867 ft 384 kts 139°
2026-04-25 20:37 38.49611 15.30938 15581 ft 390 kts 145°
2026-04-25 20:37 38.47265 15.32797 14222 ft 399 kts 148°
2026-04-25 20:38 38.44856 15.34634 12754 ft 405 kts 147°
2026-04-25 20:38 38.42453 15.36520 11701 ft 401 kts 146°
2026-04-25 20:38 38.40430 15.38774 11326 ft 374 kts 126°
2026-04-25 20:38 38.39286 15.41633 10726 ft 358 kts 109°
2026-04-25 20:39 38.38348 15.44451 10104 ft 331 kts 114°
2026-04-25 20:39 38.37363 15.46996 9453 ft 310 kts 115°
2026-04-25 20:39 38.36404 15.49380 8798 ft 294 kts 122°
2026-04-25 20:39 38.35512 15.50646 8336 ft 288 kts 143°
2026-04-25 20:40 38.33105 15.51910 7542 ft 274 kts 161°
2026-04-25 20:40 38.31342 15.52691 6946 ft 267 kts 159°
2026-04-25 20:40 38.29614 15.53496 6370 ft 259 kts 159°
2026-04-25 20:40 38.27958 15.54272 5750 ft 249 kts 159°
2026-04-25 20:41 38.26365 15.55055 5128 ft 241 kts 159°
2026-04-25 20:41 38.24809 15.55842 4430 ft 238 kts 159°
2026-04-25 20:41 38.23280 15.56620 3734 ft 236 kts 158°
2026-04-25 20:41 38.21817 15.57365 3410 ft 220 kts 158°
2026-04-25 20:42 38.20388 15.58073 3221 ft 218 kts 162°
2026-04-25 20:42 38.18951 15.58558 2890 ft 211 kts 166°
2026-04-25 20:42 38.17560 15.58956 2560 ft 198 kts 168°
2026-04-25 20:42 38.16310 15.59556 2277 ft 190 kts 152°
2026-04-25 20:43 38.15114 15.60280 2110 ft 192 kts 157°
2026-04-25 20:43 38.13892 15.60885 1776 ft 185 kts 159°
2026-04-25 20:43 38.12736 15.61494 1484 ft 172 kts 153°
2026-04-25 20:43 38.11704 15.62177 1200 ft 163 kts 152°
2026-04-25 20:44 38.10710 15.62823 847 ft 157 kts 152°
2026-04-25 20:44 38.09761 15.63455 595 ft 149 kts 152°
2026-04-25 20:44 38.08835 15.64042 316 ft 152 kts 151°
2026-04-25 20:44 38.07879 15.64663 107 ft 155 kts 153°
2026-04-25 20:45 38.07039 15.65207 55 ft 80 kts 152°
2026-04-25 20:45 38.06790 15.65371 46 ft 34 kts 153°
2026-04-25 20:45 38.06578 15.65504 39 ft 34 kts 153°
2026-04-25 20:45 38.06461 15.65638 40 ft 13 kts 194°
2026-04-25 20:46 38.06477 15.65573 39 ft 24 kts 330°
2026-04-25 20:46 38.06738 15.65402 45 ft 43 kts 333°
2026-04-25 20:46 38.06983 15.65242 53 ft 37 kts 333°
2026-04-25 20:46 38.07197 15.65106 58 ft 32 kts 334°
2026-04-25 20:47 38.07364 15.65003 62 ft 9 kts 349°
2026-04-25 20:47 38.07410 15.65056 58 ft 9 kts 62°
2026-04-25 20:47 38.07432 15.65121 63 ft 2 kts 102°
2026-04-25 20:47 38.07420 15.65134 56 ft 0 kts 154°